User: anonymous   Login
Location: Newark
(23.1300°N, 73.6109°E)
Time: 16:11:22
(UTC+00:00)
Language:

BEESAT - Orbit

View from above orbital plane
View from above orbital plane
View from above satellite
View from above satellite

Ground track
Ground track

The orbit data is extracted from the following two-line orbital elements,

1 35933U 09051C   20195.78571136  .00000064  00000-0  25510-4 0  9990
2 35933  98.6106  20.7809 0006907  64.9970 295.1944 14.56479974573812
Epoch (UTC): 13 July 2020 18:51:25
Eccentricity: 0.0006907
inclination: 98.6106°
perigee height: 699 km
apogee height: 709 km
right ascension of ascending node: 20.7809°
argument of perigee: 64.9970°
revolutions per day: 14.56479974
mean anomaly at epoch: 295.1944°
orbit number at epoch: 57381

The dashed part of the orbit path shows where the satellite is in the earth's shadow,  

DLR